星链-35670(STARLINK-35670)

导读 | 豆包AI

STARLINK-35670是美国于2025年11月15日发射的星链卫星,星链计划是太空探索技术公司(SpaceX)主导的低轨卫星互联网项目,这类卫星旨在为全球提供高速低延迟互联网接入服务,尤其覆盖偏远地区,丰富全球通信网络覆盖,该卫星是星链星座组网扩容的组成部分。

基本信息
目录编号:
66480
目录名称:
STARLINK-35670
国际标识:
2025-262AA
轨道中心:
EARTH
卫星名称:
星链-35670
卫星全名:
星链-35670(STARLINK-35670)
卫星状态:
在轨 (已飞行119 天)
发射日期:
2025-11-15 UTC
国别 :
美国 (US)
星等 :
--
轨道信息
数据来源 国际轨道数据
星历时间: 2026-03-14T06:21:46+0800
9小时前
查看轨道信息
半长轴: 6861.095km
偏心率: 0.0002214
轨道倾角: 43.005°
近地点辐角 277.727°
升交点赤经 272.341°
平近点角 82.333°
近地点: 481.438km
远地点: 484.478km
周期: 94.265分钟
每日圈数: 15.276105
详细信息
固有亮度:
5
最大亮度:
2.5
卫星平台:
Starlink V1.0
覆盖范围:
全球
运营商:
太空探索技术公司
运营商所在国:
美国
制造商(研发单位):
太空探索技术公司
制造商所在国:
美国
使用方式:
暂无
卫星简介
Starlink 计划是 SpaceX 推出的全球卫星互联网项目,通过发射低轨道卫星,为全球尤其是偏远地区提供高速、低延迟的互联网服务。自 2019 年起,Starlink 已部署数千颗卫星,旨在缩小全球数字鸿沟,推动互联网普及。该项目还为军事、航空等行业提供通信支持,带来广泛经济效益。
2D轨道图
3D轨道图
轨道高度分析图
轨道倾角分析图
轨道综合分析图
查看轨道综合分析图